Miscellaneous Local Product
Issued by NWS Hastings, NE

Home | Current Version | Previous Version | Graphics & Text | Print | Product List | Glossary On
Versions: 1 2 3 4 5 6 7 8 9 10 11 12 13 14 15 16 17 18 19 20 21 22 23 24 25 26 27 28 29 30 31 32 33 34 35 36 37 38 39 40 41 42 43 44 45 46 47 48 49 50
000
AXUS43 KGID 291502
MISGRI

GID CWA HOURLY WEATHER ROUNDUP
NATIONAL WEATHER SERVICE HASTINGS NE
900 AM CST THU JAN 29 2015

NOTE: "FAIR" INDICATES FEW OR NO CLOUDS BELOW 12,000 FEET WITH NO
SIGNIFICANT WEATHER AND/OR OBSTRUCTIONS TO VISIBILITY.

...SOUTH CENTRAL NEBRASKA...

CITY           SKY/WX    TMP DP  RH WIND       PRES   REMARKS
GRAND ISLAND   PTSUNNY   36  25  64 NW17G24   30.40R WCI  26
HASTINGS       PTSUNNY   36  24  62 N22G33    30.40R WCI  25
KEARNEY        CLOUDY    36  23  60 N20       30.42R WCI  25
ORD            CLOUDY    35  24  64 N23G32    30.40R WCI  23
YORK           CLOUDY    37  27  65 N15G24    30.36R WCI  28
AURORA         CLOUDY    37  26  67 N23G31    30.37R WCI  25
LEXINGTON      CLOUDY    36  24  63 N18       30.42R WCI  25
HOLDREGE       CLOUDY    36  24  62 N18G28    30.41R WCI  25
HEBRON         CLOUDY    39  27  62 NW14      30.36R WCI  30

...NEBRASKA PANHANDLE...

CITY           SKY/WX    TMP DP  RH WIND       PRES   REMARKS
CHADRON        CLEAR     27  23  85 W5        30.50R WCI  22
ALLIANCE       CLEAR     20  18  92 W5        30.45R WCI  13
SCOTTSBLUFF    CLEAR     30  25  81 W10       30.48R WCI  21
SIDNEY         CLEAR     31  23  72 VRB7      30.46R WCI  24

...WESTERN AND NORTH CENTRAL NEBRASKA...

CITY           SKY/WX    TMP DP  RH WIND       PRES   REMARKS
VALENTINE      CLOUDY    34  22  61 NW20G30   30.44R WCI  23
AINSWORTH      CLOUDY    34  24  68 NW18G24   30.42R WCI  23
ONEILL         CLOUDY    36  28  73 NW23      30.40R WCI  24
BROKEN BOW     CLOUDY    36  25  64 N17G25    30.42R WCI  26
IMPERIAL         N/A     31  24  75 NW10      30.48R WCI  22
NORTH PLATTE   CLEAR     26  22  84 NW7       30.46R WCI  18
MCCOOK         SUNNY     30  25  81 W12       30.47R WCI  20

...EASTERN NEBRASKA...

CITY           SKY/WX    TMP DP  RH WIND       PRES   REMARKS
NORFOLK        CLOUDY    36  27  69 NW29G35   30.36R WCI  23
SO SIOUX CITY  CLOUDY    34  26  72 N18G35    30.33R WCI  23
TEKAMAH        CLOUDY    36  27  69 NW28G40   30.32  WCI  23
COLUMBUS       CLOUDY    36  25  64 N23G33    30.37R WCI  24
ALBION         CLOUDY    36  26  67 N20G29    30.37R WCI  25
OMAHA EPPLEY   CLOUDY    36  28  73 N21G31    30.30R WCI  25
OFFUTT AFB     CLOUDY    37  27  67 N18G39    30.30R WCI  27
MILLARD        CLOUDY    37  29  71 NW14G24   30.30R WCI  29
LINCOLN        CLOUDY    39  28  64 N22G36    30.35R WCI  29
NEBRASKA CITY  CLOUDY    37  26  64 N20G26    30.29R WCI  26
BEATRICE       CLOUDY    37  29  72 N23       30.34R WCI  26
FALLS CITY     CLOUDY    39  26  59 N22G33    30.29R WCI  29

...NORTHERN KANSAS...

CITY           SKY/WX    TMP DP  RH WIND       PRES   REMARKS
GOODLAND       MOCLDY    30  26  85 N13       30.48R WCI  20
HILL CITY      MOSUNNY   33  26  75 NW13      30.46R WCI  24
NORTON         SUNNY     34  25  69 NW15      30.45R WCI  24
PHILLIPSBURG   PTSUNNY   36  28  75 W9        30.46R WCI  29
SMITH CENTER   SUNNY     37  25  60 NW20      30.43R WCI  27
BELOIT         PTSUNNY   39  27  60 NW18G26   30.41R WCI  30
HAYS           MOSUNNY   36  21  55 NW15      30.44R WCI  26
RUSSELL        MOSUNNY   36  26  67 NW15      30.42R WCI  27
CONCORDIA      CLOUDY    40  27  59 N25G33    30.38R WCI  29
SALINA         CLOUDY    41  29  62 NW15      30.41R
TOPEKA         CLOUDY    40  29  64 NW18G31   30.31R WCI  31



USA.gov is the U.S. government's official web portal to all federal, state and local government web resources and services.